CZ-6A DEB

Satellite information

Favourite Embed

Satellite Type and Status

DEBRISIN ORBIT

Key statistics

Satellite CZ-6A DEB at a glance.

Uptime

1030

Days in orbit

Revolutions

≈ 14.2

Per day

Orbit

SSO

Sun Synchronous Orbit

Inclination

98.8

Latest

Satellite identification and parameters

Extended collection of information and parameters for CZ-6A DEB.

Object identification

Identified? True

Debris? True

Object name: CZ-6A DEB

International designator: 2022-151EF

Object number (NORAD): 54407

Object ID (CCSDS): 54407

Country: PEOPLES REPUBLIC OF CHINA (PRC)

Current information (Y/N): Y

RCS size: SMALL

Orbital parameters

Period: 101.397 minutes

Inclination: 98.7717 deg

SMA: 7202.933 km

Apoapsis: 857.946 km

Periapsis: 791.65 km

RAAN: 251.7204 deg

Eccentricy: 0.00460201

Argument of periapsis: 75.7476 deg

Mean anomaly: 284.8806 deg

Mean motion: 14.20164517 rev/day

Mean motion (dot): 0.00004227 rev/day2

B* drag term: 0.0019799001 1/REarth

Two-line elements (TLE)

Creation date: Sept. 4, 2025, 10:13 a.m.

Reference frame: TEME

Reference center: EARTH

Epoch: Sept. 4, 2025, 12:36 a.m. UTC

TLE line 0: 0 CZ-6A DEB

TLE line 1: 1 54407U 22151EF 25247.02508505 .00004227 00000-0 19799-2 0 9998

TLE line 2: 2 54407 98.7717 251.7204 0046020 75.7476 284.8806 14.20164517145052

Live tracking on map

Real-time ground track for satellite CZ-6A DEB.

In-orbit conjunctions

A list of the most updated potential collisions computed for object CZ-6A DEB.

Target Orbit TCA Probability of collision Miss distance Type
NOAA 16 DEB SSO 2025-07-24 12:15:38 0.0005187991 175.0 (m) DEBRIS
COSMOS 1275 DEB LEO 2025-02-19 15:46:14 0.0001014118 433.0 (m) DEBRIS
FENGYUN 1C DEB SSO 2024-09-25 01:50:57 0.0004313639 668.0 (m) DEBRIS

Associated space launch

Chinese satellite reported for atmospheric/ocean/environmental/spatial parameter research purposes, details TBD.

CZ-6A DEB was lifted into orbit during the mission ‘Long March 6A | Yunhai 3’, on board a Long March 6A space rocket.

The launch took place on Nov. 11, 2022, 10:52 p.m. from Launch Complex 9A.

For more information about the launch, click the button.

Launch to space Long March 6A | Yunhai 3
Long March 6A | Yunhai 3

Agency: N/A

Status: Launch Successful

Launch date: Nov. 11, 2022, 10:52 p.m. UTC

Rocket: Long March 6A

Launch pad: Launch Complex 9A

Location: Taiyuan Satellite Launch Center, People's Republic of China

...

Latest news about this satellite

There are no fresh news available about this satellite. Check back as we update our databases every day.


Newsletter sign-up

Weekly statistics, charts and insights to help you stay on top of the space industry.